sat.trackr.live / text

‹ back to catalog

STARLINK-4770

NORAD 53849 · 2022-114AH

PAYLOAD ACTIVE UNKNOWN

§ Identity

Operator
Country
US
Launch date
2022-09-19
Launch site
AFETR
Launch vehicle
Mass (kg)
RCS (m²)

Purposes: comms

External: N2YO · Heavens-Above · Gunter

§ Orbital elements

Epoch: 2026-09-20T05:38:31.007904Z

Period
94.01 min
Inclination
53.1601°
Eccentricity
0.0001324
Mean motion
15.31704806 rev/d
Perigee alt
469.8 km
Apogee alt
471.6 km
Semi-major
6,848.9 km
B*
1.8340e-5
RAAN
125.2348°
Arg perigee
84.0408°
Mean anomaly
276.0744°
Rev number
22,255

§ Raw data

STARLINK-47701 53849U 22114AH  26263.23508111  .00000204  00000+0  18340-4 0  99942 53849  53.1601 125.2348 0001324  84.0408 276.0744 15.31704806222557

JSON: /api/v1/satellites/53849 · /tle

For live sub-satellite position, see the globe view (requires WebGL).

§ Visibility from observer

Set your observer location to see the next 7 days of passes ≥ 10°. The values pass through the URL so the page stays shareable.

No JS? Fill the form by hand. The geolocation button needs JavaScript.